This is the latest recevied weather packets stored in our database for station/object HI8S-13. If no packets are shown the sender has not sent any weather packets the latest 10 day(s).
| Time | Temp. | Humidity | Pressure | Rain* | Wind** | Luminosity | Snow |
|---|---|---|---|---|---|---|---|
| 1777514011 | 24.44° C | 87% | 1014.7 hPa | 0 mm | - | - | - |
| 1777513706 | 24.44° C | 87% | 1014.6 hPa | 0 mm | - | - | - |
| 1777513107 | 24.44° C | 87% | 1014.4 hPa | 0 mm | - | - | - |
| 1777512805 | 24.44° C | 87% | 1014.3 hPa | 0 mm | - | - | - |
| 1777512512 | 24.44° C | 87% | 1014.2 hPa | 0 mm | - | - | - |
| 1777512210 | 24.44° C | 87% | 1014.1 hPa | 0 mm | - | - | - |
| 1777511915 | 24.44° C | 87% | 1014 hPa | 0 mm | - | - | - |
| 1777511012 | 24.44° C | 86% | 1014 hPa | 0 mm | - | - | - |
| 1777510710 | 24.44° C | 86% | 1013.9 hPa | 0 mm | - | - | - |
| 1777508310 | 24.44° C | 85% | 1013.7 hPa | 0 mm | - | - | - |
| 1777507711 | 24.44° C | 85% | 1013.5 hPa | 0 mm | - | - | - |
| 1777506215 | 25° C | 84% | 1012.8 hPa | 0 mm | - | - | - |
| 1777502309 | 25.56° C | 82% | 1012 hPa | 0 mm | - | - | - |
| 1777502016 | 26.11° C | 81% | 1012 hPa | 0 mm | - | - | - |
| 1777501708 | 26.11° C | 80% | 1011.9 hPa | 0 mm | - | - | - |
| 1777501414 | 26.11° C | 80% | 1011.8 hPa | 0 mm | - | - | - |
| 1777501111 | 26.67° C | 79% | 1011.8 hPa | 0 mm | - | - | - |
| 1777500806 | 26.67° C | 78% | 1011.7 hPa | 0 mm | - | - | - |
| 1777500511 | 27.22° C | 77% | 1011.8 hPa | 0 mm | - | - | - |
| 1777500209 | 27.22° C | 78% | 1011.8 hPa | 0 mm | - | - | - |
| 1777499914 | 26.67° C | 79% | 1011.8 hPa | 0 mm | - | - | - |
| 1777499616 | 26.67° C | 79% | 1011.8 hPa | 0 mm | - | - | - |
| 1777499308 | 26.67° C | 79% | 1011.7 hPa | 0 mm | - | - | - |
| 1777498708 | 26.11° C | 78% | 1011.7 hPa | 0 mm | - | - | - |
| 1777498414 | 26.11° C | 79% | 1011.6 hPa | 0 mm | - | - | - |
* Rain latest hour (hover to see other rain measurements)
** Current wind speed in m/s (hover to see current wind gust speed)